Big Rapids, MI

9:07 AM EDT on September 16, 2019 (GMT -0400)
Roben-Hood

Weather History for KRQB - August, 2019

Change the Weather History Date:

Sunday, August 25, 2019

  Actual Average Record
Temperature  
Mean Temperature 61 °F -  
Max Temperature 74 °F 78 °F 91 °F (1993)
Min Temperature 48 °F 53 °F 35 °F (1977)
Degree Days  
Heating Degree Days 4    
Growing Degree Days 11 (Base 50)    
Moisture  
Dew Point 53 °F    
Average Humidity 73    
Maximum Humidity 96    
Minimum Humidity 49    
Precipitation  
Precipitation 0.00 in - - ()
Sea Level Pressure  
Sea Level Pressure 30.19 in    
Wind  
Wind Speed 4 mph (SE)    
Max Wind Speed 15 mph    
Max Gust Speed 26 mph    
Visibility 10 miles    
Events      
Averages and records for this station are not official NWS values.
T = Trace of Precipitation, MM = Missing Value Source: NWS Daily Summary

Daily Weather History Graph

Daily Weather History Graph

Search for Another Location

Airport or City:

Astronomy

Aug. 25, 2019 Rise Set
Actual Time 6:57 AM EDT 8:29 PM EDT
Civil Twilight 6:27 AM EDT 9:00 PM EDT
Nautical Twilight 5:50 AM EDT 9:36 PM EDT
Astronomical Twilight 5:11 AM EDT 10:15 PM EDT
Moon 1:26 AM EDT (8/25) 4:56 PM EDT (8/25)
Length of Visible Light 14h 32m
Length of Day
13h 32m
Waning Crescent, 29% of the Moon is Illuminated
Aug 25
Waning Crescent
Aug 30
New
Sep 5
First Quarter
Sep 14
Full
Sep 21
Last Quarter

Hourly Weather History & Observations

Time (EDT) Temp. Dew Point Humidity Pressure Visibility Wind Dir Wind Speed Gust Speed Precip Events Conditions
12:15 AM 57.7 °F 52.3 °F 82% 30.27 in 10.0 mi Calm Calm - N/A   Clear
12:35 AM 56.8 °F 51.4 °F 82% 30.27 in 10.0 mi Calm Calm - N/A   Clear
12:36 AM 56.7 °F 51.3 °F 82% 30.27 in 10.0 mi Calm Calm - N/A   Clear
12:59 AM 54.9 °F 50.9 °F 86% 30.27 in 10.0 mi Calm Calm - N/A   Clear
1:35 AM 54.7 °F 51.6 °F 89% 30.26 in 10.0 mi SE 3.5 mph - N/A   Clear
1:36 AM 54.7 °F 51.6 °F 89% 30.26 in 10.0 mi SE 3.5 mph - N/A   Clear
1:55 AM 55.4 °F 51.6 °F 87% 30.26 in 10.0 mi ESE 4.6 mph - N/A   Clear
2:19 AM 55.6 °F 51.8 °F 87% 30.26 in 10.0 mi ESE 4.6 mph - N/A   Clear
2:37 AM 55.4 °F 51.6 °F 87% 30.26 in 10.0 mi Calm Calm - N/A   Clear
2:55 AM 53.4 °F 49.5 °F 86% 30.26 in 10.0 mi Calm Calm - N/A   Clear
2:56 AM 53.1 °F 49.5 °F 88% 30.26 in 10.0 mi Calm Calm - N/A   Clear
3:15 AM 53.6 °F 50.9 °F 91% 30.26 in 10.0 mi Calm Calm - N/A   Clear
3:16 AM 53.6 °F 50.9 °F 91% 30.26 in 10.0 mi Calm Calm - N/A   Clear
3:35 AM 53.8 °F 51.3 °F 91% 30.26 in 10.0 mi Calm Calm - N/A   Clear
3:40 AM 53.6 °F 51.3 °F 92% 30.26 in 10.0 mi Calm Calm - N/A   Clear
3:58 AM 51.1 °F 49.3 °F 94% 30.26 in 10.0 mi Calm Calm - N/A   Clear
4:16 AM 51.1 °F 49.5 °F 94% 30.25 in 10.0 mi Calm Calm - N/A   Clear
4:35 AM 50.9 °F 48.7 °F 92% 30.25 in 10.0 mi Calm Calm - N/A   Clear
4:36 AM 50.9 °F 48.7 °F 92% 30.25 in 10.0 mi Calm Calm - N/A   Clear
4:55 AM 51.4 °F 49.6 °F 94% 30.25 in 10.0 mi Calm Calm - N/A   Clear
5:00 AM 51.3 °F 49.5 °F 94% 30.25 in 10.0 mi Calm Calm - N/A   Clear
5:18 AM 50.5 °F 49.1 °F 95% 30.24 in 10.0 mi Calm Calm - N/A   Clear
5:36 AM 50.4 °F 49.1 °F 95% 30.24 in 10.0 mi Calm Calm - N/A   Clear
5:55 AM 50.2 °F 48.9 °F 95% 30.24 in 10.0 mi Calm Calm - N/A   Clear
5:56 AM 50.2 °F 48.7 °F 95% 30.24 in 10.0 mi Calm Calm - N/A   Clear
6:15 AM 50.0 °F 48.7 °F 95% 30.24 in 10.0 mi Calm Calm - N/A   Clear
6:39 AM 50.2 °F 49.1 °F 96% 30.24 in 10.0 mi Calm Calm - N/A   Clear
6:57 AM 49.1 °F 48.0 °F 96% 30.25 in 10.0 mi Calm Calm - N/A   Clear
7:15 AM 48.4 °F 47.3 °F 96% 30.25 in 10.0 mi West 5.8 mph - N/A   Clear
7:16 AM 48.4 °F 47.3 °F 96% 30.25 in 10.0 mi WNW 4.6 mph - N/A   Clear
7:35 AM 48.6 °F 47.3 °F 95% 30.25 in 10.0 mi Calm Calm - N/A   Clear
7:36 AM 48.7 °F 47.7 °F 96% 30.25 in 10.0 mi Calm Calm - N/A   Clear
7:55 AM 50.0 °F 48.7 °F 95% 30.25 in 10.0 mi South 3.5 mph - N/A   Clear
8:18 AM 52.7 °F 51.3 °F 95% 30.26 in 10.0 mi Calm Calm - N/A   Clear
8:36 AM 54.9 °F 53.1 °F 94% 30.26 in 10.0 mi Calm Calm - N/A   Clear
8:55 AM 57.4 °F 54.5 °F 90% 30.26 in 10.0 mi Calm Calm - N/A   Scattered Clouds
9:15 AM 57.7 °F 54.3 °F 88% 30.25 in 10.0 mi Calm Calm - N/A   Mostly Cloudy
9:16 AM 57.9 °F 54.5 °F 88% 30.25 in 10.0 mi Calm Calm - N/A   Mostly Cloudy
9:39 AM 60.3 °F 56.5 °F 87% 30.25 in 10.0 mi Calm Calm - N/A   Overcast
9:57 AM 62.1 °F 56.8 °F 83% 30.25 in 10.0 mi Calm Calm - N/A   Overcast
10:15 AM 64.6 °F 57.4 °F 77% 30.24 in 10.0 mi South 5.8 mph - N/A   Overcast
10:16 AM 64.6 °F 57.4 °F 77% 30.24 in 10.0 mi South 5.8 mph - N/A   Overcast
10:35 AM 67.8 °F 56.7 °F 67% 30.24 in 10.0 mi SE 12.7 mph 21.9 mph N/A   Overcast
10:55 AM 68.9 °F 55.6 °F 62% 30.24 in 10.0 mi East 13.8 mph 20.7 mph N/A   Scattered Clouds
11:00 AM 68.9 °F 55.2 °F 62% 30.24 in 10.0 mi SSE 13.8 mph 24.2 mph N/A   Scattered Clouds
11:18 AM 69.3 °F 54.7 °F 60% 30.24 in 10.0 mi SE 12.7 mph - N/A   Mostly Cloudy
11:36 AM 69.8 °F 54.5 °F 58% 30.23 in 10.0 mi East 12.7 mph 20.7 mph N/A   Mostly Cloudy
11:55 AM 69.3 °F 55.2 °F 61% 30.22 in 10.0 mi SSE 10.4 mph 20.7 mph N/A   Mostly Cloudy
11:56 AM 69.4 °F 55.0 °F 60% 30.22 in 10.0 mi SE 10.4 mph 20.7 mph N/A   Mostly Cloudy
12:15 PM 72.1 °F 54.5 °F 54% 30.21 in 10.0 mi SE 10.4 mph 16.1 mph N/A   Overcast
12:39 PM 71.8 °F 54.9 °F 55% 30.21 in 10.0 mi SE 12.7 mph 18.4 mph N/A   Mostly Cloudy
12:57 PM 71.8 °F 55.6 °F 57% 30.21 in 10.0 mi ESE 11.5 mph 19.6 mph N/A   Mostly Cloudy
1:15 PM 71.4 °F 55.2 °F 57% 30.19 in 10.0 mi ESE 10.4 mph - N/A   Overcast
1:16 PM 71.4 °F 55.2 °F 57% 30.19 in 10.0 mi ESE 10.4 mph - N/A   Overcast
1:35 PM 72.3 °F 55.4 °F 55% 30.19 in 10.0 mi South 9.2 mph - N/A   Mostly Cloudy
1:55 PM 72.0 °F 55.4 °F 56% 30.18 in 10.0 mi ESE 9.2 mph 16.1 mph N/A   Mostly Cloudy
1:59 PM 72.0 °F 55.2 °F 55% 30.18 in 10.0 mi ESE 10.4 mph - N/A   Overcast
2:16 PM 72.9 °F 55.2 °F 54% 30.18 in 10.0 mi East 9.2 mph 18.4 mph N/A   Overcast
2:35 PM 72.5 °F 54.5 °F 53% 30.18 in 10.0 mi ESE 9.2 mph - N/A   Overcast
2:55 PM 72.7 °F 54.5 °F 53% 30.17 in 10.0 mi ESE 9.2 mph 16.1 mph N/A   Mostly Cloudy
2:56 PM 72.7 °F 54.9 °F 53% 30.17 in 10.0 mi ESE 9.2 mph - N/A   Mostly Cloudy
3:19 PM 74.1 °F 55.2 °F 52% 30.15 in 10.0 mi East 11.5 mph 18.4 mph N/A   Scattered Clouds
3:37 PM 72.9 °F 55.0 °F 53% 30.15 in 10.0 mi ESE 9.2 mph - N/A   Mostly Cloudy
3:55 PM 73.6 °F 55.0 °F 52% 30.14 in 10.0 mi ESE 10.4 mph 24.2 mph N/A   Mostly Cloudy
4:15 PM 74.3 °F 55.6 °F 52% 30.14 in 10.0 mi SE 15.0 mph 19.6 mph N/A   Scattered Clouds
4:16 PM 74.3 °F 55.2 °F 51% 30.14 in 10.0 mi SE 15.0 mph 19.6 mph N/A   Scattered Clouds
4:39 PM 74.5 °F 54.9 °F 50% 30.13 in 10.0 mi ESE 10.4 mph 23.0 mph N/A   Mostly Cloudy
4:56 PM 74.3 °F 54.3 °F 50% 30.12 in 10.0 mi ESE 12.7 mph 25.3 mph N/A   Scattered Clouds
5:15 PM 74.3 °F 54.1 °F 49% 30.11 in 10.0 mi ESE 11.5 mph - N/A   Clear
5:16 PM 74.3 °F 54.5 °F 50% 30.11 in 10.0 mi ESE 11.5 mph - N/A   Clear
5:35 PM 73.9 °F 53.8 °F 49% 30.11 in 10.0 mi SE 12.7 mph 26.5 mph N/A   Clear
5:59 PM 73.8 °F 53.6 °F 49% 30.10 in 10.0 mi SE 13.8 mph 21.9 mph N/A   Scattered Clouds
6:17 PM 73.4 °F 53.8 °F 50% 30.10 in 10.0 mi SE 12.7 mph 17.3 mph N/A   Clear
6:35 PM 72.3 °F 53.8 °F 52% 30.10 in 10.0 mi SE 11.5 mph 18.4 mph N/A   Clear
6:36 PM 72.3 °F 54.0 °F 52% 30.10 in 10.0 mi ESE 10.4 mph 18.4 mph N/A   Clear
6:55 PM 72.1 °F 54.1 °F 53% 30.10 in 10.0 mi SE 10.4 mph 21.9 mph N/A   Clear
7:15 PM 72.0 °F 54.5 °F 54% 30.09 in 10.0 mi SE 11.5 mph - N/A   Scattered Clouds
7:19 PM 71.8 °F 54.5 °F 54% 30.09 in 10.0 mi SE 11.5 mph - N/A   Scattered Clouds
7:38 PM 70.3 °F 55.4 °F 59% 30.09 in 10.0 mi ESE 8.1 mph - N/A   Scattered Clouds
7:56 PM 68.9 °F 55.9 °F 63% 30.09 in 10.0 mi SE 6.9 mph - N/A   Scattered Clouds
8:15 PM 67.3 °F 55.6 °F 66% 30.09 in 10.0 mi ESE 5.8 mph - N/A   Clear
8:35 PM 66.6 °F 55.4 °F 67% 30.09 in 10.0 mi ESE 5.8 mph - N/A   Scattered Clouds
8:36 PM 66.4 °F 55.4 °F 68% 30.09 in 10.0 mi ESE 5.8 mph - N/A   Scattered Clouds
8:59 PM 65.3 °F 55.4 °F 70% 30.09 in 10.0 mi ESE 5.8 mph - N/A   Scattered Clouds
9:17 PM 64.9 °F 55.4 °F 71% 30.09 in 10.0 mi East 4.6 mph - N/A   Mostly Cloudy
9:35 PM 63.9 °F 55.6 °F 74% 30.10 in 10.0 mi SSE 5.8 mph - N/A   Mostly Cloudy
9:36 PM 63.9 °F 55.8 °F 75% 30.10 in 10.0 mi SSE 6.9 mph - N/A   Mostly Cloudy
9:55 PM 64.2 °F 55.8 °F 74% 30.09 in 10.0 mi SE 5.8 mph - N/A   Mostly Cloudy
10:15 PM 63.5 °F 55.6 °F 75% 30.09 in 10.0 mi ESE 5.8 mph - N/A   Scattered Clouds
10:19 PM 63.5 °F 55.8 °F 76% 30.09 in 10.0 mi ESE 5.8 mph - N/A   Scattered Clouds
10:37 PM 63.3 °F 55.6 °F 76% 30.09 in 10.0 mi ESE 6.9 mph - N/A   Scattered Clouds
10:56 PM 63.7 °F 55.4 °F 74% 30.09 in 10.0 mi South 8.1 mph - N/A   Clear
11:15 PM 64.2 °F 54.9 °F 72% 30.09 in 10.0 mi SE 10.4 mph - N/A   Clear
11:35 PM 64.4 °F 53.6 °F 68% 30.09 in 10.0 mi SSE 11.5 mph - N/A   Clear
11:36 PM 64.4 °F 53.6 °F 68% 30.09 in 10.0 mi South 11.5 mph - N/A   Clear
11:59 PM 63.9 °F 52.9 °F 67% 30.09 in 10.0 mi South 9.2 mph - N/A   Clear